Time,TemperatureF,DewpointF,PressureIn,WindDirection,WindDirectionDegrees,WindSpeedMPH,WindSpeedGustMPH,Humidity,HourlyPrecipIn,Conditions,Clouds,dailyrainin,SoftwareType,DateUTC
2013-12-03 00:22:00,56.0,56.0,30.01,SE,138,0.0,3.0,100,0.00,,,0.00,,2013-12-03 08:22:00,
2013-12-03 00:42:00,56.0,56.0,29.98,SSE,157,0.0,2.0,100,0.00,,,0.00,,2013-12-03 08:42:00,
2013-12-03 00:53:00,55.0,55.0,29.98,SW,215,2.0,4.0,100,0.00,,,0.00,,2013-12-03 08:53:00,
2013-12-03 01:11:00,55.0,55.0,29.98,SW,231,1.0,4.0,100,0.00,,,0.00,,2013-12-03 09:11:00,
2013-12-03 01:21:00,55.0,55.0,29.98,SW,231,1.0,4.0,100,0.00,,,0.00,,2013-12-03 09:21:00,
2013-12-03 01:53:00,54.0,54.0,29.98,South,176,0.0,1.0,100,0.00,,,0.00,,2013-12-03 09:53:00,
2013-12-03 02:13:00,53.0,53.0,29.98,East,90,0.0,1.0,100,0.00,,,0.00,,2013-12-03 10:13:00,
2013-12-03 02:23:00,53.0,53.0,29.98,East,90,0.0,1.0,100,0.00,,,0.00,,2013-12-03 10:23:00,
2013-12-03 02:42:00,53.0,53.0,29.98,SSE,168,0.0,2.0,100,0.00,,,0.00,,2013-12-03 10:42:00,
2013-12-03 02:53:00,52.0,52.0,29.98,South,169,0.0,3.0,99,0.00,,,0.00,,2013-12-03 10:53:00,
2013-12-03 03:22:00,52.0,51.0,29.98,ESE,110,2.0,4.0,96,0.00,,,0.00,,2013-12-03 11:22:00,
2013-12-03 03:42:00,51.0,50.0,29.98,South,187,3.0,4.0,95,0.00,,,0.00,,2013-12-03 11:42:00,
2013-12-03 03:52:00,51.0,49.0,29.98,ENE,77,3.0,3.0,93,0.00,,,0.00,,2013-12-03 11:52:00,
2013-12-03 04:21:00,50.0,48.0,29.95,West,275,0.0,2.0,92,0.00,,,0.00,,2013-12-03 12:21:00,
2013-12-03 04:52:00,50.0,47.0,29.95,ENE,74,0.0,2.0,91,0.00,,,0.00,,2013-12-03 12:52:00,
2013-12-03 05:21:00,49.0,45.0,29.95,North,11,1.0,5.0,87,0.00,,,0.00,,2013-12-03 13:21:00,
2013-12-03 05:42:00,49.0,45.0,29.95,SE,134,1.0,3.0,86,0.00,,,0.00,,2013-12-03 13:42:00,
2013-12-03 05:52:00,49.0,45.0,29.95,SSW,201,2.0,3.0,86,0.00,,,0.00,,2013-12-03 13:52:00,
2013-12-03 06:11:00,49.0,45.0,29.95,East,86,2.0,3.0,87,0.00,,,0.00,,2013-12-03 14:11:00,
2013-12-03 06:22:00,49.0,45.0,29.95,East,86,2.0,3.0,87,0.00,,,0.00,,2013-12-03 14:22:00,
2013-12-03 06:42:00,49.0,45.0,29.95,ESE,115,0.0,6.0,86,0.00,,,0.00,,2013-12-03 14:42:00,
2013-12-03 06:52:00,49.0,45.0,29.95,ESE,115,0.0,6.0,86,0.00,,,0.00,,2013-12-03 14:52:00,
2013-12-03 07:21:00,49.0,44.0,29.95,SE,134,2.0,3.0,84,0.00,,,0.00,,2013-12-03 15:21:00,
2013-12-03 07:53:00,49.0,44.0,29.98,SSE,153,3.0,3.0,83,0.00,,,0.00,,2013-12-03 15:53:00,
2013-12-03 08:22:00,49.0,44.0,29.95,SW,225,2.0,6.0,82,0.00,,,0.00,,2013-12-03 16:22:00,
2013-12-03 08:52:00,49.0,43.0,29.95,SE,136,0.0,4.0,80,0.00,,,0.00,,2013-12-03 16:52:00,
2013-12-03 09:22:00,49.0,43.0,29.95,ESE,110,0.0,3.0,79,0.00,,,0.00,,2013-12-03 17:22:00,
2013-12-03 09:52:00,49.0,42.0,29.95,East,95,0.0,2.0,77,0.00,,,0.00,,2013-12-03 17:52:00,
2013-12-03 10:22:00,50.0,43.0,29.95,SE,140,0.0,3.0,76,0.00,,,0.00,,2013-12-03 18:22:00,
2013-12-03 11:21:00,50.0,41.0,29.95,SSE,155,0.0,2.0,71,0.00,,,0.00,,2013-12-03 19:21:00,
2013-12-03 11:31:00,50.0,41.0,29.95,SSE,155,0.0,2.0,71,0.00,,,0.00,,2013-12-03 19:31:00,
2013-12-03 15:22:00,53.0,42.0,29.86,SSW,193,0.0,3.0,67,0.00,,,0.00,,2013-12-03 23:22:00,
2013-12-03 15:52:00,53.0,42.0,29.86,SSE,164,1.0,2.0,66,0.00,,,0.00,,2013-12-03 23:52:00,
2013-12-03 16:21:00,53.0,42.0,29.89,SSE,164,1.0,2.0,66,0.00,,,0.00,,2013-12-04 00:21:00,
2013-12-03 16:41:00,52.0,42.0,29.89,North,0,0.0,0.0,68,0.00,,,0.00,,2013-12-04 00:41:00,
2013-12-03 16:52:00,52.0,42.0,29.89,North,0,0.0,0.0,68,0.00,,,0.00,,2013-12-04 00:52:00,
2013-12-03 17:21:00,50.0,41.0,29.89,SE,143,0.0,4.0,71,0.00,,,0.00,,2013-12-04 01:21:00,
2013-12-03 17:52:00,50.0,41.0,29.89,South,188,0.0,2.0,71,0.00,,,0.00,,2013-12-04 01:52:00,
2013-12-03 18:02:00,50.0,41.0,29.89,South,188,0.0,2.0,71,0.00,,,0.00,,2013-12-04 02:02:00,
2013-12-03 18:21:00,49.0,40.0,29.89,SE,126,1.0,2.0,71,0.00,,,0.00,,2013-12-04 02:21:00,
2013-12-03 18:42:00,49.0,40.0,29.89,North,0,0.0,0.0,72,0.00,,,0.00,,2013-12-04 02:42:00,
2013-12-03 18:52:00,49.0,40.0,29.92,North,0,0.0,0.0,72,0.00,,,0.00,,2013-12-04 02:52:00,
2013-12-03 19:21:00,48.0,40.0,29.92,North,0,0.0,0.0,73,0.00,,,0.00,,2013-12-04 03:21:00,
2013-12-03 19:43:00,47.0,39.0,29.92,North,0,0.0,0.0,74,0.00,,,0.00,,2013-12-04 03:43:00,
2013-12-03 19:54:00,47.0,39.0,29.92,North,0,0.0,0.0,74,0.00,,,0.00,,2013-12-04 03:54:00,
2013-12-03 20:13:00,45.0,38.0,29.92,North,0,0.0,0.0,75,0.00,,,0.00,,2013-12-04 04:13:00,
2013-12-03 20:23:00,45.0,38.0,29.92,North,0,0.0,0.0,75,0.00,,,0.00,,2013-12-04 04:23:00,
2013-12-03 20:52:00,43.0,36.0,29.95,North,0,0.0,0.0,77,0.00,,,0.00,,2013-12-04 04:52:00,
2013-12-03 21:12:00,43.0,37.0,29.95,North,0,0.0,0.0,79,0.00,,,0.00,,2013-12-04 05:12:00,
2013-12-03 21:22:00,43.0,37.0,29.95,North,0,0.0,0.0,79,0.00,,,0.00,,2013-12-04 05:22:00,
2013-12-03 21:53:00,41.0,35.0,29.95,North,0,0.0,0.0,80,0.00,,,0.00,,2013-12-04 05:53:00,
2013-12-03 22:22:00,41.0,36.0,29.98,North,0,0.0,0.0,81,0.00,,,0.00,,2013-12-04 06:22:00,
2013-12-03 22:52:00,40.0,35.0,29.98,North,0,0.0,0.0,81,0.00,,,0.00,,2013-12-04 06:52:00,
2013-12-03 23:02:00,40.0,35.0,29.98,North,0,0.0,0.0,81,0.00,,,0.00,,2013-12-04 07:02:00,
2013-12-03 23:21:00,40.0,35.0,29.98,North,0,0.0,0.0,82,0.00,,,0.00,,2013-12-04 07:21:00,
2013-12-03 23:42:00,39.0,34.0,29.98,North,0,0.0,0.0,82,0.00,,,0.00,,2013-12-04 07:42:00,
2013-12-03 23:52:00,39.0,34.0,29.98,North,0,0.0,0.0,82,0.00,,,0.00,,2013-12-04 07:52:00,